RRR4216 TXKF-TBPB

Flight info

Callsign RRR4216
Flight time 3h 14m
Altitude 31000
Route SEAVR L576 CITRS/N0368F310 DCT KANUN DCT URSIK DCT BGI
Aircraft A400/H-SDE2E3FGHIJ4J5M1RWXY/LB1D1

Departure

Time 2026-04-22 14:06
Airport L.F. Wade International Airport (TXKF)

Arrival

Time 2026-04-22 17:21
Airport Grantley Adams International Airport (TBPB)
Time Latitude Longitude Altitude Speed Heading
2026-04-22 13:47 32.36843 -64.68635 38 ft 0 kts 12°
2026-04-22 14:00 32.36850 -64.68632 38 ft 3 kts 19°
2026-04-22 14:00 32.36856 -64.68606 38 ft 4 kts 109°
2026-04-22 14:01 32.36814 -64.68595 38 ft 10 kts 185°
2026-04-22 14:01 32.36779 -64.68646 33 ft 9 kts 229°
2026-04-22 14:01 32.36709 -64.68665 36 ft 13 kts 175°
2026-04-22 14:01 32.36667 -64.68573 36 ft 16 kts 100°
2026-04-22 14:02 32.36642 -64.68428 37 ft 20 kts 101°
2026-04-22 14:02 32.36615 -64.68268 37 ft 20 kts 101°
2026-04-22 14:02 32.36587 -64.68108 35 ft 20 kts 101°
2026-04-22 14:02 32.36559 -64.67948 35 ft 20 kts 101°
2026-04-22 14:03 32.36532 -64.67787 36 ft 20 kts 102°
2026-04-22 14:03 32.36504 -64.67628 36 ft 20 kts 102°
2026-04-22 14:03 32.36477 -64.67468 36 ft 20 kts 102°
2026-04-22 14:03 32.36451 -64.67313 36 ft 19 kts 102°
2026-04-22 14:04 32.36424 -64.67157 37 ft 19 kts 102°
2026-04-22 14:04 32.36399 -64.67004 35 ft 19 kts 101°
2026-04-22 14:04 32.36370 -64.66852 35 ft 19 kts 101°
2026-04-22 14:04 32.36345 -64.66700 34 ft 19 kts 102°
2026-04-22 14:05 32.36320 -64.66548 38 ft 19 kts 100°
2026-04-22 14:05 32.36277 -64.66403 37 ft 19 kts 115°
2026-04-22 14:05 32.36149 -64.66389 33 ft 7 kts 283°
2026-04-22 14:06 32.36187 -64.66601 31 ft 68 kts 281°
2026-04-22 14:06 32.36342 -64.67511 48 ft 153 kts 283°
2026-04-22 14:06 32.36543 -64.68851 500 ft 180 kts 283°
2026-04-22 14:06 32.36739 -64.70336 1289 ft 182 kts 285°
2026-04-22 14:07 32.36980 -64.71892 1833 ft 205 kts 285°
2026-04-22 14:07 32.37252 -64.73688 2138 ft 239 kts 284°
2026-04-22 14:07 32.37566 -64.75677 2592 ft 249 kts 284°
2026-04-22 14:07 32.37794 -64.77736 3071 ft 260 kts 274°
2026-04-22 14:08 32.37447 -64.79880 3942 ft 271 kts 251°
2026-04-22 14:08 32.36340 -64.81660 4995 ft 279 kts 220°
2026-04-22 14:08 32.34556 -64.82529 6059 ft 283 kts 186°
2026-04-22 14:08 32.32603 -64.82235 7053 ft 286 kts 162°
2026-04-22 14:09 32.30749 -64.81319 7937 ft 291 kts 151°
2026-04-22 14:09 32.28982 -64.80100 8770 ft 297 kts 146°
2026-04-22 14:09 32.27238 -64.78745 9642 ft 302 kts 145°
2026-04-22 14:09 32.25462 -64.77347 10382 ft 312 kts 146°
2026-04-22 14:10 32.23605 -64.75931 11010 ft 322 kts 147°
2026-04-22 14:10 32.21183 -64.74169 11936 ft 328 kts 149°
2026-04-22 14:10 32.19195 -64.72775 12697 ft 333 kts 150°
2026-04-22 14:10 32.17865 -64.71859 13196 ft 336 kts 150°
2026-04-22 14:11 32.15827 -64.70468 13972 ft 340 kts 151°
2026-04-22 14:11 32.13764 -64.69066 14688 ft 344 kts 151°
2026-04-22 14:11 32.11681 -64.67653 15431 ft 346 kts 151°
2026-04-22 14:11 32.08899 -64.65762 16438 ft 349 kts 152°
2026-04-22 14:12 32.06791 -64.64327 17201 ft 352 kts 152°
2026-04-22 14:12 32.05353 -64.63347 17717 ft 353 kts 152°
2026-04-22 14:12 32.03247 -64.61912 18479 ft 356 kts 152°
2026-04-22 14:12 32.01082 -64.60438 19102 ft 360 kts 152°
2026-04-22 14:13 31.98902 -64.58954 19746 ft 364 kts 152°
2026-04-22 14:13 31.96696 -64.57453 20384 ft 367 kts 152°
2026-04-22 14:13 31.94472 -64.55940 21015 ft 371 kts 152°
2026-04-22 14:13 31.92222 -64.54411 21649 ft 375 kts 152°
2026-04-22 14:14 31.89958 -64.52873 22269 ft 378 kts 153°
2026-04-22 14:14 31.87664 -64.51315 22895 ft 382 kts 153°
2026-04-22 14:14 31.85348 -64.49744 23508 ft 385 kts 153°
2026-04-22 14:14 31.83010 -64.48159 24041 ft 389 kts 153°
2026-04-22 14:15 31.80653 -64.46562 24503 ft 393 kts 153°
2026-04-22 14:15 31.78306 -64.44972 24952 ft 396 kts 153°
2026-04-22 14:15 31.75903 -64.43345 25358 ft 400 kts 153°
2026-04-22 14:15 31.73474 -64.41702 25776 ft 403 kts 153°
2026-04-22 14:16 31.71035 -64.40053 26199 ft 406 kts 153°
2026-04-22 14:16 31.68576 -64.38391 26618 ft 409 kts 153°
2026-04-22 14:16 31.66102 -64.36720 27001 ft 411 kts 153°
2026-04-22 14:16 31.63612 -64.35040 27374 ft 415 kts 153°
2026-04-22 14:17 31.61097 -64.33343 27715 ft 418 kts 153°
2026-04-22 14:17 31.58598 -64.31659 28073 ft 420 kts 153°
2026-04-22 14:17 31.56058 -64.29947 28413 ft 423 kts 153°
2026-04-22 14:17 31.53500 -64.28225 28742 ft 425 kts 153°
2026-04-22 14:18 31.50920 -64.26489 29064 ft 428 kts 154°
2026-04-22 14:18 31.48328 -64.24747 29347 ft 430 kts 154°
2026-04-22 14:18 31.45717 -64.22992 29607 ft 433 kts 154°
2026-04-22 14:18 31.43086 -64.21226 29895 ft 435 kts 154°
2026-04-22 14:19 31.40487 -64.19482 30178 ft 437 kts 154°
2026-04-22 14:19 31.37849 -64.17712 30497 ft 437 kts 154°
2026-04-22 14:19 31.35216 -64.15946 30830 ft 436 kts 154°
2026-04-22 14:19 31.32591 -64.14186 31127 ft 434 kts 154°
2026-04-22 14:20 31.27328 -64.10664 31206 ft 436 kts 154°
2026-04-22 14:20 31.22069 -64.07150 31206 ft 435 kts 154°
2026-04-22 14:21 31.14173 -64.01884 31206 ft 436 kts 154°
2026-04-22 14:22 31.06265 -63.96618 31200 ft 436 kts 154°
2026-04-22 14:23 30.98384 -63.91381 31200 ft 436 kts 154°
2026-04-22 14:23 30.93109 -63.87881 31200 ft 436 kts 154°
2026-04-22 14:24 30.87835 -63.84386 31182 ft 436 kts 154°
2026-04-22 14:24 30.82548 -63.80888 31190 ft 437 kts 154°
2026-04-22 14:25 30.77263 -63.77395 31192 ft 437 kts 154°
2026-04-22 14:25 30.71975 -63.73904 31197 ft 437 kts 154°
2026-04-22 14:26 30.66691 -63.70420 31196 ft 436 kts 154°
2026-04-22 14:26 30.61439 -63.66962 31195 ft 436 kts 154°
2026-04-22 14:27 30.56159 -63.63490 31195 ft 436 kts 154°
2026-04-22 14:27 30.50872 -63.60018 31191 ft 436 kts 154°
2026-04-22 14:28 30.45589 -63.56553 31191 ft 436 kts 154°
2026-04-22 14:28 30.40330 -63.53107 31188 ft 436 kts 154°
2026-04-22 14:29 30.35046 -63.49650 31190 ft 436 kts 154°
2026-04-22 14:29 30.29759 -63.46195 31169 ft 436 kts 155°
2026-04-22 14:30 30.24469 -63.42743 31186 ft 436 kts 155°
2026-04-22 14:30 30.19171 -63.39289 31191 ft 436 kts 155°
2026-04-22 14:31 30.13877 -63.35843 31181 ft 436 kts 155°
2026-04-22 14:31 30.08587 -63.32403 31174 ft 436 kts 155°
2026-04-22 14:32 30.03321 -63.28983 31174 ft 436 kts 155°
2026-04-22 14:32 29.98023 -63.25547 31176 ft 436 kts 155°
2026-04-22 14:33 29.92734 -63.22121 31177 ft 436 kts 155°
2026-04-22 14:33 29.87435 -63.18692 31175 ft 436 kts 155°
2026-04-22 14:34 29.82175 -63.15293 31181 ft 436 kts 155°
2026-04-22 14:34 29.76876 -63.11872 31171 ft 436 kts 155°
2026-04-22 14:35 29.71603 -63.08481 31170 ft 434 kts 157°
2026-04-22 14:35 29.66054 -63.05902 31173 ft 428 kts 166°
2026-04-22 14:36 29.60413 -63.03691 31171 ft 428 kts 167°
2026-04-22 14:36 29.54750 -63.01555 31168 ft 427 kts 167°
2026-04-22 14:37 29.49127 -62.99432 31168 ft 428 kts 167°
2026-04-22 14:37 29.43462 -62.97282 31168 ft 428 kts 167°
2026-04-22 14:38 29.37812 -62.95133 31167 ft 428 kts 167°
2026-04-22 14:38 29.32150 -62.92981 31166 ft 428 kts 167°
2026-04-22 14:39 29.26525 -62.90845 31164 ft 428 kts 167°
2026-04-22 14:39 29.20863 -62.88699 31164 ft 428 kts 167°
2026-04-22 14:40 29.12377 -62.85487 31155 ft 428 kts 168°
2026-04-22 14:40 29.06707 -62.83344 31169 ft 429 kts 168°
2026-04-22 14:41 29.01040 -62.81205 31160 ft 428 kts 168°
2026-04-22 14:41 28.95422 -62.79085 31161 ft 427 kts 168°
2026-04-22 14:42 28.89771 -62.76957 31163 ft 427 kts 168°
2026-04-22 14:42 28.84128 -62.74834 31156 ft 427 kts 168°
2026-04-22 14:43 28.78482 -62.72713 31158 ft 427 kts 168°
2026-04-22 14:43 28.72826 -62.70590 31161 ft 427 kts 168°
2026-04-22 14:44 28.67172 -62.68470 31156 ft 427 kts 168°
2026-04-22 14:44 28.61560 -62.66369 31156 ft 427 kts 168°
2026-04-22 14:45 28.55904 -62.64252 31147 ft 427 kts 169°
2026-04-22 14:45 28.50247 -62.62139 31158 ft 427 kts 169°
2026-04-22 14:46 28.44598 -62.60030 31155 ft 427 kts 169°
2026-04-22 14:46 28.38948 -62.57924 31153 ft 427 kts 169°
2026-04-22 14:47 28.33317 -62.55827 31153 ft 427 kts 169°
2026-04-22 14:47 28.27669 -62.53726 31144 ft 427 kts 170°
2026-04-22 14:48 28.22026 -62.51628 31146 ft 425 kts 170°
2026-04-22 14:48 28.16402 -62.49540 31149 ft 424 kts 170°
2026-04-22 14:49 28.10801 -62.47464 31148 ft 424 kts 170°
2026-04-22 14:49 28.05226 -62.45400 31149 ft 424 kts 170°
2026-04-22 14:50 27.99613 -62.43324 31128 ft 424 kts 170°
2026-04-22 14:50 27.94011 -62.41254 31149 ft 423 kts 170°
2026-04-22 14:51 27.88404 -62.39184 31143 ft 423 kts 170°
2026-04-22 14:51 27.82809 -62.37121 31142 ft 423 kts 170°
2026-04-22 14:52 27.77244 -62.35072 31144 ft 423 kts 170°
2026-04-22 14:52 27.71647 -62.33013 31140 ft 423 kts 170°
2026-04-22 14:53 27.66041 -62.30952 31139 ft 423 kts 170°
2026-04-22 14:53 27.60435 -62.28894 31139 ft 423 kts 170°
2026-04-22 14:54 27.54826 -62.26837 31141 ft 423 kts 170°
2026-04-22 14:54 27.49263 -62.24799 31139 ft 423 kts 170°
2026-04-22 14:55 27.43661 -62.22749 31141 ft 423 kts 170°
2026-04-22 14:55 27.38070 -62.20704 31132 ft 422 kts 170°
2026-04-22 14:56 27.32481 -62.18663 31138 ft 421 kts 170°
2026-04-22 14:56 27.26942 -62.16643 31133 ft 421 kts 170°
2026-04-22 14:57 27.21367 -62.14612 31130 ft 421 kts 171°
2026-04-22 14:57 27.15778 -62.12578 31131 ft 421 kts 171°
2026-04-22 14:58 27.11145 -62.10893 31128 ft 421 kts 171°
2026-04-22 14:58 27.05568 -62.08867 31130 ft 421 kts 171°
2026-04-22 14:59 26.99976 -62.06838 31130 ft 421 kts 171°
2026-04-22 14:59 26.94392 -62.04812 31129 ft 421 kts 171°
2026-04-22 15:00 26.88801 -62.02787 31129 ft 421 kts 171°
2026-04-22 15:00 26.83256 -62.00781 31126 ft 421 kts 171°
2026-04-22 15:01 26.77672 -61.98763 31126 ft 421 kts 171°
2026-04-22 15:01 26.72087 -61.96747 31128 ft 421 kts 171°
2026-04-22 15:02 26.66502 -61.94732 31127 ft 421 kts 171°
2026-04-22 15:02 26.60919 -61.92720 31131 ft 421 kts 171°
2026-04-22 15:03 26.55346 -61.90714 31102 ft 420 kts 170°
2026-04-22 15:03 26.49815 -61.88725 31123 ft 420 kts 170°
2026-04-22 15:04 26.44250 -61.86726 31125 ft 420 kts 170°
2026-04-22 15:04 26.38690 -61.84731 31125 ft 420 kts 170°
2026-04-22 15:05 26.33133 -61.82739 31122 ft 420 kts 170°
2026-04-22 15:05 26.27563 -61.80745 31121 ft 420 kts 170°
2026-04-22 15:06 26.21996 -61.78753 31125 ft 420 kts 170°
2026-04-22 15:06 26.16461 -61.76776 31123 ft 421 kts 170°
2026-04-22 15:07 26.10883 -61.74783 31122 ft 421 kts 170°
2026-04-22 15:07 26.05303 -61.72793 31127 ft 421 kts 170°
2026-04-22 15:08 25.99726 -61.70806 31118 ft 421 kts 170°
2026-04-22 15:08 25.94150 -61.68821 31111 ft 420 kts 170°
2026-04-22 15:09 25.88574 -61.66838 31114 ft 420 kts 170°
2026-04-22 15:09 25.82998 -61.64857 31112 ft 420 kts 170°
2026-04-22 15:10 25.77463 -61.62892 31113 ft 420 kts 170°
2026-04-22 15:10 25.71890 -61.60916 31114 ft 420 kts 170°
2026-04-22 15:11 25.66316 -61.58942 31099 ft 420 kts 170°
2026-04-22 15:11 25.60747 -61.56970 31108 ft 419 kts 170°
2026-04-22 15:12 25.55185 -61.55004 31108 ft 419 kts 170°
2026-04-22 15:12 25.49614 -61.53037 31108 ft 419 kts 170°
2026-04-22 15:13 25.44052 -61.51075 31102 ft 419 kts 170°
2026-04-22 15:13 25.38518 -61.49124 31078 ft 419 kts 170°
2026-04-22 15:14 25.32958 -61.47166 31100 ft 419 kts 171°
2026-04-22 15:14 25.27399 -61.45210 31100 ft 419 kts 171°
2026-04-22 15:15 25.21875 -61.43269 31100 ft 419 kts 171°
2026-04-22 15:15 25.16319 -61.41318 31096 ft 419 kts 171°
2026-04-22 15:16 25.10759 -61.39367 31098 ft 419 kts 171°
2026-04-22 15:16 25.05199 -61.37419 31090 ft 419 kts 171°
2026-04-22 15:17 24.99630 -61.35470 31094 ft 420 kts 171°
2026-04-22 15:17 24.94054 -61.33519 31081 ft 420 kts 172°
2026-04-22 15:18 24.88510 -61.31580 31088 ft 420 kts 172°
2026-04-22 15:18 24.82940 -61.29636 31085 ft 420 kts 172°
2026-04-22 15:19 24.77374 -61.27694 31083 ft 420 kts 172°
2026-04-22 15:19 24.71798 -61.25752 31083 ft 420 kts 172°
2026-04-22 15:20 24.66230 -61.23813 31088 ft 420 kts 172°
2026-04-22 15:20 24.60698 -61.21889 31081 ft 419 kts 172°
2026-04-22 15:21 24.55125 -61.19952 31083 ft 420 kts 172°
2026-04-22 15:21 24.49560 -61.18020 31086 ft 420 kts 172°
2026-04-22 15:22 24.43977 -61.16084 31082 ft 420 kts 172°
2026-04-22 15:22 24.38403 -61.14152 31080 ft 420 kts 172°
2026-04-22 15:23 24.32814 -61.12217 31081 ft 420 kts 172°
2026-04-22 15:23 24.27267 -61.10298 31079 ft 420 kts 172°
2026-04-22 15:24 24.21688 -61.08370 31077 ft 420 kts 173°
2026-04-22 15:24 24.16112 -61.06444 31069 ft 420 kts 173°
2026-04-22 15:25 24.10540 -61.04523 31069 ft 420 kts 173°
2026-04-22 15:25 24.04961 -61.02599 31070 ft 419 kts 173°
2026-04-22 15:26 23.99403 -61.00685 31073 ft 418 kts 173°
2026-04-22 15:26 23.93845 -60.98774 31073 ft 418 kts 173°
2026-04-22 15:27 23.88292 -60.96866 31047 ft 418 kts 173°
2026-04-22 15:27 23.82737 -60.94958 31066 ft 418 kts 173°
2026-04-22 15:28 23.77219 -60.93065 31074 ft 418 kts 173°
2026-04-22 15:28 23.71661 -60.91160 31060 ft 418 kts 173°
2026-04-22 15:29 23.66102 -60.89256 31069 ft 418 kts 173°
2026-04-22 15:30 23.58712 -60.86728 31046 ft 418 kts 173°
2026-04-22 15:30 23.52208 -60.84508 31067 ft 420 kts 173°
2026-04-22 15:31 23.46623 -60.82601 31071 ft 420 kts 173°
2026-04-22 15:31 23.41046 -60.80697 31067 ft 420 kts 173°
2026-04-22 15:32 23.35507 -60.78809 31064 ft 420 kts 173°
2026-04-22 15:32 23.29922 -60.76907 31065 ft 420 kts 173°
2026-04-22 15:33 23.24338 -60.75009 31064 ft 422 kts 173°
2026-04-22 15:33 23.18726 -60.73102 31064 ft 422 kts 173°
2026-04-22 15:34 23.13116 -60.71195 31067 ft 422 kts 173°
2026-04-22 15:34 23.07544 -60.69304 31067 ft 422 kts 173°
2026-04-22 15:35 23.02845 -60.67711 31065 ft 422 kts 173°
2026-04-22 15:35 22.96330 -60.65504 31058 ft 422 kts 173°
2026-04-22 15:36 22.90708 -60.63603 31064 ft 423 kts 173°
2026-04-22 15:36 22.85090 -60.61702 31064 ft 423 kts 173°
2026-04-22 15:37 22.79510 -60.59817 31065 ft 423 kts 173°
2026-04-22 15:37 22.73868 -60.57912 31064 ft 423 kts 173°
2026-04-22 15:38 22.68285 -60.56029 31041 ft 423 kts 173°
2026-04-22 15:38 22.59823 -60.53182 31064 ft 425 kts 173°
2026-04-22 15:39 22.54170 -60.51278 31064 ft 425 kts 173°
2026-04-22 15:39 22.48517 -60.49376 31064 ft 425 kts 173°
2026-04-22 15:40 22.42865 -60.47477 31067 ft 425 kts 173°
2026-04-22 15:40 22.37207 -60.45577 31045 ft 425 kts 174°
2026-04-22 15:41 22.31551 -60.43681 31062 ft 426 kts 174°
2026-04-22 15:41 22.25883 -60.41782 31064 ft 426 kts 174°
2026-04-22 15:42 22.20223 -60.39886 31063 ft 426 kts 174°
2026-04-22 15:42 22.14565 -60.37993 31067 ft 426 kts 174°
2026-04-22 15:43 22.08935 -60.36112 31065 ft 426 kts 174°
2026-04-22 15:43 22.03277 -60.34222 31071 ft 425 kts 174°
2026-04-22 15:44 21.97621 -60.32334 31066 ft 425 kts 174°
2026-04-22 15:44 21.91967 -60.30449 31063 ft 425 kts 174°
2026-04-22 15:45 21.86322 -60.28569 31059 ft 425 kts 174°
2026-04-22 15:45 21.80705 -60.26699 31059 ft 425 kts 174°
2026-04-22 15:46 21.75062 -60.24823 31064 ft 425 kts 174°
2026-04-22 15:46 21.69415 -60.22946 31070 ft 425 kts 174°
2026-04-22 15:47 21.63760 -60.21069 31059 ft 425 kts 174°
2026-04-22 15:47 21.59063 -60.19510 31071 ft 425 kts 174°
2026-04-22 15:48 21.52495 -60.17333 31063 ft 425 kts 174°
2026-04-22 15:48 21.47794 -60.15776 31059 ft 425 kts 174°
2026-04-22 15:49 21.42137 -60.13905 31062 ft 427 kts 173°
2026-04-22 15:49 21.36447 -60.12024 31064 ft 427 kts 173°
2026-04-22 15:50 21.30755 -60.10142 31064 ft 427 kts 173°
2026-04-22 15:50 21.25073 -60.08264 31065 ft 427 kts 173°
2026-04-22 15:51 21.19383 -60.06387 31064 ft 427 kts 173°
2026-04-22 15:51 21.13730 -60.04524 31053 ft 427 kts 173°
2026-04-22 15:52 21.08034 -60.02648 31062 ft 428 kts 173°
2026-04-22 15:52 21.02338 -60.00773 31062 ft 428 kts 173°
2026-04-22 15:53 20.96652 -59.98879 31062 ft 428 kts 173°
2026-04-22 15:53 20.91003 -59.96958 31062 ft 428 kts 173°
2026-04-22 15:54 20.85315 -59.95019 31059 ft 428 kts 173°
2026-04-22 15:54 20.79634 -59.93089 31063 ft 429 kts 172°
2026-04-22 15:55 20.73930 -59.91155 31066 ft 429 kts 172°
2026-04-22 15:55 20.68240 -59.89227 31066 ft 429 kts 172°
2026-04-22 15:56 20.62581 -59.87312 31058 ft 429 kts 172°
2026-04-22 15:56 20.56885 -59.85386 31058 ft 429 kts 172°
2026-04-22 15:57 20.51191 -59.83462 31059 ft 429 kts 172°
2026-04-22 15:57 20.45494 -59.81540 31059 ft 429 kts 172°
2026-04-22 15:58 20.39794 -59.79616 31058 ft 429 kts 172°
2026-04-22 15:58 20.34131 -59.77707 31059 ft 429 kts 172°
2026-04-22 15:59 20.28424 -59.75785 31059 ft 429 kts 172°
2026-04-22 15:59 20.22726 -59.73867 31034 ft 429 kts 171°
2026-04-22 16:00 20.17026 -59.71950 31057 ft 429 kts 172°
2026-04-22 16:00 20.11334 -59.70037 31060 ft 429 kts 172°
2026-04-22 16:01 20.05677 -59.68138 31051 ft 429 kts 172°
2026-04-22 16:01 19.99977 -59.66225 31054 ft 429 kts 172°
2026-04-22 16:02 19.94288 -59.64318 31056 ft 429 kts 172°
2026-04-22 16:02 19.88595 -59.62410 31052 ft 428 kts 171°
2026-04-22 16:03 19.82906 -59.60505 31050 ft 428 kts 171°
2026-04-22 16:03 19.77226 -59.58605 31048 ft 428 kts 171°
2026-04-22 16:04 19.71581 -59.56718 31048 ft 428 kts 171°
2026-04-22 16:04 19.65881 -59.54814 31048 ft 428 kts 171°
2026-04-22 16:05 19.60200 -59.52918 31029 ft 428 kts 171°
2026-04-22 16:05 19.54533 -59.51026 31048 ft 426 kts 171°
2026-04-22 16:06 19.48903 -59.49150 31045 ft 426 kts 171°
2026-04-22 16:06 19.43239 -59.47264 31045 ft 426 kts 171°
2026-04-22 16:07 19.37584 -59.45383 31042 ft 426 kts 171°
2026-04-22 16:07 19.31927 -59.43502 31039 ft 426 kts 171°
2026-04-22 16:08 19.26278 -59.41624 31033 ft 425 kts 171°
2026-04-22 16:08 19.20632 -59.39748 31041 ft 424 kts 171°
2026-04-22 16:09 19.15042 -59.37894 31040 ft 424 kts 171°
2026-04-22 16:09 19.09411 -59.36027 31037 ft 424 kts 171°
2026-04-22 16:10 19.03776 -59.34160 31038 ft 424 kts 171°
2026-04-22 16:10 18.98143 -59.32295 31037 ft 424 kts 171°
2026-04-22 16:11 18.92518 -59.30433 31036 ft 423 kts 170°
2026-04-22 16:11 18.86903 -59.28576 31037 ft 423 kts 170°
2026-04-22 16:12 18.81314 -59.26729 31037 ft 423 kts 170°
2026-04-22 16:12 18.75694 -59.24874 31037 ft 423 kts 170°
2026-04-22 16:13 18.70077 -59.23021 31034 ft 423 kts 170°
2026-04-22 16:13 18.64458 -59.21167 31034 ft 423 kts 170°
2026-04-22 16:14 18.58838 -59.19316 31029 ft 423 kts 170°
2026-04-22 16:14 18.53260 -59.17479 31029 ft 423 kts 170°
2026-04-22 16:15 18.47637 -59.15628 31029 ft 423 kts 170°
2026-04-22 16:15 18.42017 -59.13781 31029 ft 423 kts 170°
2026-04-22 16:16 18.36391 -59.11932 31029 ft 423 kts 170°
2026-04-22 16:16 18.30782 -59.10089 31028 ft 421 kts 170°
2026-04-22 16:17 18.25222 -59.08264 31029 ft 421 kts 170°
2026-04-22 16:17 18.19634 -59.06432 31026 ft 421 kts 170°
2026-04-22 16:18 18.14045 -59.04601 31026 ft 421 kts 170°
2026-04-22 16:18 18.08440 -59.02765 31024 ft 421 kts 170°
2026-04-22 16:19 18.02852 -59.00944 31015 ft 419 kts 171°
2026-04-22 16:19 17.97228 -59.00118 31019 ft 406 kts 185°
2026-04-22 16:20 17.91603 -59.00090 31025 ft 403 kts 187°
2026-04-22 16:20 17.85991 -59.00218 31023 ft 403 kts 188°
2026-04-22 16:21 17.80381 -59.00357 31020 ft 403 kts 188°
2026-04-22 16:21 17.74770 -59.00475 31021 ft 403 kts 188°
2026-04-22 16:22 17.66383 -59.00634 31020 ft 403 kts 187°
2026-04-22 16:23 17.57966 -59.00790 31020 ft 403 kts 187°
2026-04-22 16:23 17.52358 -59.00895 31012 ft 403 kts 187°
2026-04-22 16:24 17.43979 -59.01052 31006 ft 403 kts 187°
2026-04-22 16:25 17.38363 -59.01157 31013 ft 404 kts 187°
2026-04-22 16:25 17.29928 -59.01315 31015 ft 404 kts 187°
2026-04-22 16:26 17.24340 -59.01419 31018 ft 404 kts 187°
2026-04-22 16:26 17.18717 -59.01524 31011 ft 404 kts 187°
2026-04-22 16:27 17.13093 -59.01629 31012 ft 404 kts 186°
2026-04-22 16:27 17.07478 -59.01734 31012 ft 404 kts 186°
2026-04-22 16:28 17.01845 -59.01839 31020 ft 404 kts 186°
2026-04-22 16:28 16.96259 -59.01943 31018 ft 404 kts 186°
2026-04-22 16:29 16.90640 -59.02047 31017 ft 404 kts 186°
2026-04-22 16:29 16.85017 -59.02152 31004 ft 404 kts 187°
2026-04-22 16:30 16.79392 -59.02256 31015 ft 404 kts 187°
2026-04-22 16:30 16.73774 -59.02361 31015 ft 403 kts 187°
2026-04-22 16:31 16.68198 -59.02464 31011 ft 403 kts 187°
2026-04-22 16:31 16.62582 -59.02569 31016 ft 404 kts 187°
2026-04-22 16:32 16.56957 -59.02673 31012 ft 404 kts 187°
2026-04-22 16:32 16.51338 -59.02777 31006 ft 403 kts 186°
2026-04-22 16:33 16.45727 -59.02881 31009 ft 403 kts 186°
2026-04-22 16:33 16.40110 -59.02985 31010 ft 403 kts 186°
2026-04-22 16:34 16.34495 -59.03089 31010 ft 403 kts 186°
2026-04-22 16:34 16.28878 -59.03193 31010 ft 403 kts 186°
2026-04-22 16:35 16.23302 -59.03296 31003 ft 403 kts 186°
2026-04-22 16:35 16.17687 -59.03400 31008 ft 404 kts 186°
2026-04-22 16:36 16.12065 -59.03504 31006 ft 404 kts 186°
2026-04-22 16:36 16.06446 -59.03608 31003 ft 404 kts 186°
2026-04-22 16:37 16.00823 -59.03710 31003 ft 404 kts 186°
2026-04-22 16:37 15.95236 -59.03731 31004 ft 404 kts 185°
2026-04-22 16:38 15.89607 -59.03697 31005 ft 404 kts 185°
2026-04-22 16:38 15.84932 -59.03666 31004 ft 404 kts 185°
2026-04-22 16:39 15.79302 -59.03638 31005 ft 404 kts 185°
2026-04-22 16:39 15.73679 -59.03614 31005 ft 404 kts 185°
2026-04-22 16:40 15.68049 -59.03592 31004 ft 404 kts 185°
2026-04-22 16:41 15.59612 -59.03559 31000 ft 404 kts 185°
2026-04-22 16:41 15.53983 -59.03536 31002 ft 404 kts 185°
2026-04-22 16:42 15.48359 -59.03513 31000 ft 404 kts 185°
2026-04-22 16:42 15.42765 -59.03490 31000 ft 404 kts 185°
2026-04-22 16:43 15.37141 -59.03468 31000 ft 404 kts 185°
2026-04-22 16:43 15.31505 -59.03445 31001 ft 404 kts 185°
2026-04-22 16:44 15.25881 -59.03423 31002 ft 404 kts 185°
2026-04-22 16:44 15.20255 -59.03400 31001 ft 404 kts 185°
2026-04-22 16:45 15.14666 -59.03378 31002 ft 404 kts 185°
2026-04-22 16:45 15.09045 -59.03355 30999 ft 404 kts 185°
2026-04-22 16:46 15.03422 -59.03333 30991 ft 404 kts 185°
2026-04-22 16:46 14.97801 -59.03310 30997 ft 404 kts 185°
2026-04-22 16:47 14.92165 -59.03288 30996 ft 404 kts 185°
2026-04-22 16:47 14.86576 -59.03265 30996 ft 404 kts 185°
2026-04-22 16:48 14.80949 -59.03242 30996 ft 404 kts 185°
2026-04-22 16:48 14.75317 -59.03220 30996 ft 404 kts 185°
2026-04-22 16:49 14.69688 -59.03197 30994 ft 405 kts 184°
2026-04-22 16:49 14.64049 -59.03175 30992 ft 405 kts 184°
2026-04-22 16:50 14.58408 -59.03153 30995 ft 405 kts 184°
2026-04-22 16:50 14.52808 -59.03130 30991 ft 405 kts 184°
2026-04-22 16:51 14.47158 -59.03108 30773 ft 406 kts 184°
2026-04-22 16:51 14.44327 -59.03096 30643 ft 405 kts 184°
2026-04-22 16:51 14.41504 -59.03085 30408 ft 408 kts 184°
2026-04-22 16:51 14.38648 -59.03076 29669 ft 411 kts 184°
2026-04-22 16:52 14.35800 -59.03064 29099 ft 407 kts 184°
2026-04-22 16:52 14.32968 -59.03051 28673 ft 406 kts 184°
2026-04-22 16:52 14.30145 -59.03039 28213 ft 404 kts 184°
2026-04-22 16:52 14.27346 -59.03027 27750 ft 402 kts 183°
2026-04-22 16:53 14.24555 -59.03015 27288 ft 400 kts 183°
2026-04-22 16:53 14.21785 -59.03034 26825 ft 396 kts 187°
2026-04-22 16:53 14.19136 -59.03627 26292 ft 388 kts 201°
2026-04-22 16:53 14.16602 -59.04540 25786 ft 384 kts 203°
2026-04-22 16:54 14.14143 -59.05503 25330 ft 382 kts 204°
2026-04-22 16:54 14.11670 -59.06493 24895 ft 380 kts 204°
2026-04-22 16:54 14.09204 -59.07486 24456 ft 380 kts 204°
2026-04-22 16:54 14.06751 -59.08475 24117 ft 378 kts 204°
2026-04-22 16:55 14.04298 -59.09465 23680 ft 378 kts 204°
2026-04-22 16:55 14.01856 -59.10451 23069 ft 375 kts 204°
2026-04-22 16:55 13.99437 -59.11427 22605 ft 372 kts 204°
2026-04-22 16:55 13.97034 -59.12396 22179 ft 370 kts 204°
2026-04-22 16:56 13.94647 -59.13359 21725 ft 367 kts 204°
2026-04-22 16:56 13.92276 -59.14316 21292 ft 365 kts 203°
2026-04-22 16:56 13.89915 -59.15268 20850 ft 362 kts 203°
2026-04-22 16:56 13.87576 -59.16211 20416 ft 360 kts 203°
2026-04-22 16:57 13.85253 -59.17148 19981 ft 358 kts 203°
2026-04-22 16:57 13.82940 -59.18080 19547 ft 355 kts 203°
2026-04-22 16:57 13.80674 -59.18993 19122 ft 354 kts 203°
2026-04-22 16:57 13.78387 -59.19915 18694 ft 352 kts 202°
2026-04-22 16:58 13.76849 -59.20535 18401 ft 350 kts 202°
2026-04-22 16:58 13.73856 -59.21740 17785 ft 347 kts 202°
2026-04-22 16:58 13.71615 -59.22642 17357 ft 344 kts 202°
2026-04-22 16:58 13.69386 -59.23540 16932 ft 342 kts 202°
2026-04-22 16:59 13.67182 -59.24427 16516 ft 339 kts 202°
2026-04-22 16:59 13.64984 -59.25311 16099 ft 337 kts 203°
2026-04-22 16:59 13.62811 -59.26185 15682 ft 334 kts 203°
2026-04-22 16:59 13.60651 -59.27054 15262 ft 332 kts 203°
2026-04-22 17:00 13.58539 -59.27904 14862 ft 329 kts 203°
2026-04-22 17:00 13.54300 -59.29607 14044 ft 324 kts 203°
2026-04-22 17:00 13.52204 -59.30450 13620 ft 321 kts 203°
2026-04-22 17:01 13.50133 -59.31282 13192 ft 319 kts 203°
2026-04-22 17:01 13.48073 -59.32110 12798 ft 317 kts 203°
2026-04-22 17:01 13.46022 -59.32934 12392 ft 315 kts 203°
2026-04-22 17:01 13.43981 -59.33754 11979 ft 313 kts 203°
2026-04-22 17:02 13.41979 -59.34558 11599 ft 311 kts 203°
2026-04-22 17:02 13.39968 -59.35365 11201 ft 309 kts 203°
2026-04-22 17:02 13.37968 -59.36168 10805 ft 307 kts 203°
2026-04-22 17:02 13.35983 -59.36965 10462 ft 303 kts 202°
2026-04-22 17:03 13.34060 -59.37736 10275 ft 294 kts 202°
2026-04-22 17:03 13.32160 -59.38498 9887 ft 291 kts 203°
2026-04-22 17:03 13.30278 -59.39253 9482 ft 289 kts 202°
2026-04-22 17:03 13.28410 -59.40003 9120 ft 287 kts 202°
2026-04-22 17:04 13.26576 -59.40738 8768 ft 285 kts 202°
2026-04-22 17:04 13.24730 -59.41479 8413 ft 284 kts 202°
2026-04-22 17:04 13.22899 -59.42213 8063 ft 281 kts 202°
2026-04-22 17:04 13.21081 -59.42942 7712 ft 278 kts 202°
2026-04-22 17:05 13.19282 -59.43663 7349 ft 277 kts 201°
2026-04-22 17:05 13.17494 -59.44379 6959 ft 275 kts 201°
2026-04-22 17:05 13.15721 -59.45090 6727 ft 274 kts 201°
2026-04-22 17:05 13.13944 -59.45802 6524 ft 274 kts 200°
2026-04-22 17:06 13.12172 -59.46512 6350 ft 272 kts 200°
2026-04-22 17:06 13.10405 -59.47219 6152 ft 273 kts 200°
2026-04-22 17:06 13.08653 -59.47933 5950 ft 266 kts 203°
2026-04-22 17:06 13.07102 -59.48911 5661 ft 262 kts 219°
2026-04-22 17:07 13.05791 -59.50211 5292 ft 261 kts 225°
2026-04-22 17:07 13.04553 -59.51573 4930 ft 260 kts 226°
2026-04-22 17:07 13.03347 -59.52918 4572 ft 259 kts 227°
2026-04-22 17:07 13.02142 -59.54259 4324 ft 251 kts 226°
2026-04-22 17:08 13.00969 -59.55559 4087 ft 246 kts 226°
2026-04-22 17:08 12.99827 -59.56829 3844 ft 238 kts 227°
2026-04-22 17:08 12.98915 -59.58220 3619 ft 234 kts 245°
2026-04-22 17:08 12.98581 -59.59836 3379 ft 232 kts 271°
2026-04-22 17:09 12.98952 -59.61421 3173 ft 228 kts 297°
2026-04-22 17:09 12.99924 -59.62670 2988 ft 224 kts 323°
2026-04-22 17:09 13.00801 -59.63211 2841 ft 222 kts 339°
2026-04-22 17:09 13.02791 -59.63471 2599 ft 219 kts 11°
2026-04-22 17:10 13.04197 -59.62936 2396 ft 215 kts 34°
2026-04-22 17:10 13.05247 -59.61911 2200 ft 206 kts 56°
2026-04-22 17:10 13.05817 -59.60612 2003 ft 193 kts 77°
2026-04-22 17:10 13.05900 -59.59311 1822 ft 172 kts 93°
2026-04-22 17:11 13.05768 -59.58131 1653 ft 162 kts 97°
2026-04-22 17:11 13.05734 -59.57018 1456 ft 152 kts 86°
2026-04-22 17:11 13.05871 -59.55946 1216 ft 151 kts 79°
2026-04-22 17:11 13.06078 -59.54891 1071 ft 150 kts 80°
2026-04-22 17:12 13.06309 -59.53839 903 ft 152 kts 75°
2026-04-22 17:12 13.06589 -59.52803 652 ft 148 kts 77°
2026-04-22 17:12 13.06834 -59.51787 411 ft 149 kts 77°
2026-04-22 17:12 13.07090 -59.50753 248 ft 149 kts 76°
2026-04-22 17:13 13.07314 -59.49829 186 ft 105 kts 77°
2026-04-22 17:13 13.07451 -59.49264 185 ft 72 kts 76°
2026-04-22 17:13 13.07610 -59.48630 196 ft 119 kts 76°
2026-04-22 17:13 13.07863 -59.47617 515 ft 161 kts 76°
2026-04-22 17:14 13.08117 -59.46496 1380 ft 159 kts 80°
2026-04-22 17:14 13.08299 -59.45355 2255 ft 171 kts 84°
2026-04-22 17:14 13.08040 -59.44094 2751 ft 194 kts 120°
2026-04-22 17:14 13.07013 -59.43152 2922 ft 206 kts 155°
2026-04-22 17:15 13.06086 -59.42946 2946 ft 209 kts 179°
2026-04-22 17:15 13.04333 -59.43734 2937 ft 214 kts 226°
2026-04-22 17:15 13.03613 -59.45068 2947 ft 216 kts 248°
2026-04-22 17:15 13.03151 -59.46521 2946 ft 217 kts 253°
2026-04-22 17:16 13.02675 -59.47994 2946 ft 218 kts 250°
2026-04-22 17:16 13.02171 -59.49463 2944 ft 218 kts 250°
2026-04-22 17:16 13.01665 -59.50929 2945 ft 218 kts 250°
2026-04-22 17:16 13.01163 -59.52390 2947 ft 216 kts 250°
2026-04-22 17:17 13.00671 -59.53825 2944 ft 215 kts 250°
2026-04-22 17:17 13.00178 -59.55267 2898 ft 210 kts 250°
2026-04-22 17:17 12.99701 -59.56671 2600 ft 210 kts 251°
2026-04-22 17:17 12.99477 -59.58158 2413 ft 214 kts 277°
2026-04-22 17:18 13.00105 -59.59496 2289 ft 211 kts 319°
2026-04-22 17:18 13.01389 -59.60113 2165 ft 206 kts 357°
2026-04-22 17:18 13.02725 -59.59811 2049 ft 192 kts 31°
2026-04-22 17:18 13.03788 -59.59037 1926 ft 185 kts 40°
2026-04-22 17:19 13.05482 -59.57140 1640 ft 179 kts 67°
2026-04-22 17:19 13.06137 -59.54630 1080 ft 187 kts 76°
2026-04-22 17:20 13.06716 -59.52267 506 ft 155 kts 76°
2026-04-22 17:20 13.07221 -59.50218 188 ft 133 kts 77°
2026-04-22 17:21 13.07392 -59.49499 187 ft 80 kts 75°
2026-04-22 17:21 13.07645 -59.48487 183 ft 41 kts 76°
2026-04-22 17:22 13.07802 -59.48360 184 ft 14 kts 345°
2026-04-22 17:22 13.07861 -59.48412 190 ft 13 kts 265°
2026-04-22 17:22 13.07871 -59.48546 192 ft 8 kts 344°
2026-04-22 17:23 13.07907 -59.48555 181 ft 0 kts 346°